This is the latest recevied weather packets stored in our database for station/object KC1IUC-15. If no packets are shown the sender has not sent any weather packets the latest 10 day(s).
| Time | Temp. | Humidity | Pressure | Rain* | Wind** | Luminosity | Snow |
|---|---|---|---|---|---|---|---|
| 1788582603 | 19.44° C | 78% | 1009.3 hPa | 0 mm | - | 0 W/m² | - |
| 1788582303 | 19.44° C | 76% | 1009.3 hPa | 0 mm | - | 0 W/m² | - |
| 1788582003 | 20° C | 74% | 1009.3 hPa | 0 mm | - | 0 W/m² | - |
| 1788581704 | 20° C | 73% | 1009.3 hPa | 0 mm | - | 0 W/m² | - |
| 1788581404 | 20° C | 72% | 1009.3 hPa | 0 mm | - | 0 W/m² | - |
| 1788581104 | 20.56° C | 70% | 1009.3 hPa | 0 mm | - | 0 W/m² | - |
| 1788580805 | 20.56° C | 69% | 1009.3 hPa | 0 mm | - | 0 W/m² | - |
| 1788580504 | 20.56° C | 68% | 1008.9 hPa | 0 mm | - | 0 W/m² | - |
| 1788580204 | 20.56° C | 67% | 1008.9 hPa | 0 mm | - | 0 W/m² | - |
| 1788579907 | 21.11° C | 68% | 1008.9 hPa | 0 mm | - | 0 W/m² | - |
| 1788579604 | 21.11° C | 68% | 1009.3 hPa | 0 mm | - | 0 W/m² | - |
| 1788579304 | 21.11° C | 68% | 1008.9 hPa | 0 mm | - | 0 W/m² | - |
| 1788579004 | 20.56° C | 69% | 1008.9 hPa | 0 mm | - | 0 W/m² | - |
| 1788578704 | 20.56° C | 69% | 1008.9 hPa | 0 mm | - | 0 W/m² | - |
| 1788578404 | 21.11° C | 69% | 1008.9 hPa | 0 mm | - | 0 W/m² | - |
| 1788578104 | 20.56° C | 69% | 1008.9 hPa | 0 mm | - | 0 W/m² | - |
| 1788577804 | 20° C | 72% | 1008.9 hPa | 0 mm | - | 0 W/m² | - |
| 1788577504 | 19.44° C | 75% | 1008.9 hPa | 0 mm | - | 0 W/m² | - |
| 1788577204 | 18.89° C | 78% | 1008.9 hPa | 0 mm | - | 0 W/m² | - |
| 1788576904 | 18.89° C | 83% | 1008.9 hPa | 0 mm | - | 0 W/m² | - |
| 1788576604 | 18.89° C | 86% | 1008.9 hPa | 0 mm | - | 0 W/m² | - |
| 1788576304 | 18.33° C | 88% | 1009.3 hPa | 0 mm | - | 0 W/m² | - |
| 1788576004 | 18.33° C | 88% | 1008.9 hPa | 0 mm | - | 0 W/m² | - |
| 1788575704 | 18.33° C | 87% | 1008.9 hPa | 0 mm | - | 0 W/m² | - |
| 1788575404 | 18.33° C | 87% | 1008.9 hPa | 0 mm | - | 0 W/m² | - |
* Rain latest hour (hover to see other rain measurements)
** Current wind speed in m/s (hover to see current wind gust speed)